Location: Remedello Sotto
(45.2500°N, 10.3667°E)
Time: 04:21:30
(UTC+00:00)

ATLAS CENTAUR R/B - Pass Details

Date: 03 February 2023
Orbit: 449 x 650 km, 64.7° (Epoch: 28 March)

Event Time Altitude Azimuth Distance (km) Brightness Sun altitude
Rises 17:17:10 0° 244° (WSW) 2,983 7.0 -9.0°
Reaches altitude 10° 17:19:45 10° 255° (WSW) 2,062 5.9 -9.4°
Maximum altitude 17:23:53 30° 317° (NW) 1,156 3.3 -10.1°
Drops below altitude 10° 17:27:54 10° 19° (NNE) 1,994 3.9 -10.8°
Enters shadow 17:29:31 - 27° (NNE) 2,563 4.4 -11.1°
